THOR ABLESTAR DEB, 130

Orbit data source: Space-Track

THOR ABLESTAR DEB, 130 is space debris in LEO originally from a launch on Thu, 29 Jun 1961 UTC launched from the Air Force Eastern Test Range (AFETR). Debris objects in space refer to the collection of defunct objects orbiting the Earth. Examples of debris include non-operational satellites, rocket bodies, and fragments generated from explosions, collisions, or faulty payload assembly.

Loading next visibility...
THOR ABLESTAR DEB details
Identifier
130, 1961-015Q
Orbit
LEO
Last TLE update10 hours ago
Origin
Flag of USUSAF SSD (US)
ManufacturerUnknown
MissionSpacecraft
Bus & MotorUnknown
MassUnknown
Launch date (UTC)
1961-06-29 (64 years ago)
Launch vehicleUnknown
Launch site
Air Force Eastern Test Range (AFETR)
Object type
Payload
Rocket body
Debris
Shape & HBRUnknown
Radar Cross Section0.490 m², Medium (>0.1 m² and < 1m²)

Expand to show TLE details & history

TLE from 10 hours ago
0 THOR ABLESTAR DEB
1   130U 61015Q   25044.23679216  .00000169  00000-0  16444-3 0  9996
2   130  66.7717  24.2446 0092549 273.1000  85.9496 13.99253541243589
Epoch: 2025-02-13T05:40Z
Definitive object data (Epoch: 2025-02-13T05:40:58.842Z)
Latitude-0.00006°
Longitude155.4836°
Altitude894.328 km
Speed7.407 km/s
True Right ascension01h 36m 58s
True Declination0° 00' 00"
Sunlit
Object was in daylight at TLE epoch
Visualization TLE readout
Latitude29.58846°
Longitude168.43443°
Altitude932.062 km
Speed7.372 km/s
Apparent Right ascension04h 17m 32s
Apparent Declination-2° 51' 39"
Sunlit
Object is in daylight
Visualization observer readout
Local Sidereal Time18:43:07
Azimuth51.137° ENE
Elevation-40.438°
Doppler factor1
Orbital elements
Apogee altitude962.081 km
Perigee altitude827.461 km
Semi-major axis7,272.908 km
Eccentricity0.0092549
Inclination66.7717°
RAAN24.2446°
Arg. of periapsis273.1°
True anomaly87.00829°
Mean anomaly85.9496°
Eccentric anomaly86.47887°
Mean motion3.4993 °/min
BSTAR0.00016444
Orbital period102.88 mins
Loading maneuver chart data...

THOR ABLESTAR DEB Visibility forecast

Observer location: undefined°, undefined

Span
Click to sort rows by Start time (UTC) header in descending order
Start Az.
Max El. time (UTC)
Max El. Az.
Max El.
End time (UTC)
End Az.
9 mins2025-02-13 22:56:49.097Z156.091° SSE2025-02-13 23:01:49.097Z99.481° ESE21.969°2025-02-13 23:05:49.097Z57.107° ENE
11 mins2025-02-14 00:41:49.097Z228.486° WSW2025-02-14 00:46:49.097Z306.49° NW39.601°2025-02-14 00:52:49.097Z21.453° NNE
8 mins2025-02-14 07:57:49.097Z1.71° NNE2025-02-14 08:01:49.097Z52.46° ENE23.664°2025-02-14 08:05:49.097Z97.778° ESE
10 mins2025-02-14 09:42:49.097Z321.311° NNW2025-02-14 09:47:49.097Z239.826° WSW40.961°2025-02-14 09:52:49.097Z169.524° S
|